Location: Downe
(51.3167°N, 0.0500°E)
Time: 08:53:16
(UTC+00:00)

ATLAS 2AS CENTAUR R/B - Pass Details

Date: 17 November 2019
Orbit: 926 x 1286 km, 63.7° (Epoch: 09 December)

Event Time Altitude Azimuth Distance (km) Brightness Sun altitude
Exits shadow 05:19:27 22° 309° (NW) 2,421 4.1 -18.5°
Maximum altitude 05:24:42 64° 235° (SW) 1,292 2.9 -17.7°
Drops below altitude 10° 05:31:41 10° 156° (SSE) 2,957 5.5 -16.6°
Sets 05:34:16 0° 153° (SSE) 3,860 6.2 -16.3°
